Wind_Speed
27 28 28 28 29 29 30 31 32 32 32 32 34 34 34 34 34 35 35 35 37 37 37 37 37 38 38 39 39 40 41 42 42 43 44 45 46 48 48 47 47 47 48 49
27 27 28 28 28 29 29 30 31 31 31 32 33 34 34 34 33 32 33 34 35 36 36 37 38 38 39 39 39 40 41 42 43 43 43 44 44 45 47 48 47 47 48 49
27 27 28 27 27 28 28 29 29 30 29 30 31 32 32 32 32 31 31 32 33 34 34 35 36 37 38 38 38 40 41 43 44 44 44 44 44 44 45 46 47 47 47 48
28 28 29 26 26 27 28 28 29 29 29 28 28 29 29 30 31 32 32 31 31 31 32 33 34 36 36 37 37 38 39 41 43 44 45 44 44 44 43 44 45 46 46 47
28 29 29 26 26 27 28 28 28 28 28 28 28 29 29 29 29 29 31 31 31 30 30 31 33 35 36 36 37 38 39 40 41 42 43 44 43 42 42 43 43 44 45 47
28 29 28 26 26 26 28 28 27 28 28 28 28 28 28 28 28 28 29 30 30 29 29 30 32 33 35 35 36 37 38 39 40 40 41 42 42 41 41 41 43 44 45 47
27 28 27 25 26 27 28 27 27 27 27 27 28 28 28 28 27 27 28 28 28 28 29 29 31 32 33 33 35 35 36 37 37 38 39 40 41 41 42 42 42 43 45 46
26 27 26 26 25 26 26 26 27 27 27 27 28 28 28 28 28 27 27 28 28 28 28 28 30 32 33 33 35 35 35 36 36 37 39 40 41 42 42 42 43 43 43 44
26 26 26 25 26 27 27 27 27 27 27 28 28 28 28 28 28 28 28 28 29 29 28 28 29 31 32 33 34 34 35 35 35 36 37 38 40 41 42 43 43 43 43 43
27 25 25 25 26 27 27 27 27 27 27 27 28 28 29 29 29 29 29 29 29 30 29 29 30 31 31 32 33 33 35 36 36 36 36 37 39 40 41 42 42 42 43 43
26 24 25 24 25 26 26 27 27 27 26 26 26 27 28 28 28 28 28 28 28 29 29 29 29 30 30 31 32 32 34 36 37 37 37 38 38 39 40 41 41 42 42 42
27 25 26 26 25 26 26 26 26 25 25 25 25 26 26 26 27 27 27 28 28 28 29 29 29 30 30 30 31 31 33 34 35 37 38 39 39 40 40 40 41 41 41 42
27 27 27 27 26 26 26 26 26 25 25 25 25 26 26 26 26 27 27 28 28 28 29 29 29 30 30 30 30 31 32 33 34 35 36 38 38 39 39 39 40 40 41 41
27 26 26 26 27 26 26 26 26 25 25 26 26 26 26 27 27 27 27 27 27 28 28 28 28 29 29 29 30 30 32 32 33 34 35 35 36 37 37 38 38 38 39 40
26 26 26 26 27 27 27 27 26 26 26 26 26 26 27 27 27 27 26 26 27 27 27 27 28 28 29 29 30 30 31 32 32 32 32 33 33 34 34 35 36 37 39 39
26 26 26 27 28 28 27 27 27 27 27 26 27 27 26 26 25 26 26 27 27 27 26 26 27 27 28 28 29 30 30 31 31 31 31 31 32 32 33 33 34 36 37 38
27 27 27 27 28 28 27 27 27 27 27 26 26 26 26 26 25 25 26 26 26 26 26 26 26 27 27 28 29 30 30 30 30 30 31 31 32 32 33 33 34 34 35 36
28 28 28 27 27 27 27 27 27 27 26 26 26 25 25 25 25 25 25 25 26 26 26 26 27 27 28 29 29 30 30 29 29 30 30 31 31 32 32 33 34 35 35 36
29 28 28 28 27 27 27 27 27 27 27 27 26 26 25 26 27 27 26 26 26 26 27 27 27 28 28 28 28 28 28 28 29 29 29 30 31 31 32 33 33 35 35 36
29 29 29 28 28 28 28 28 27 27 26 26 26 26 26 26 27 27 27 27 27 27 27 27 27 27 27 27 27 27 27 27 27 28 29 30 30 31 32 32 33 34 35 35
29 29 29 29 29 29 28 28 28 27 27 27 27 27 27 27 27 27 27 28 27 27 27 27 27 27 26 26 26 26 26 27 27 28 28 29 30 30 31 33 33 34 34 35
28 28 28 28 28 28 28 28 28 28 28 28 28 28 28 28 28 28 28 27 27 27 27 27 27 27 26 26 26 27 27 27 27 27 28 29 30 30 32 33 33 34 34 34
28 28 28 27 27 28 28 28 28 28 28 28 28 28 28 28 28 27 27 27 27 27 27 27 27 27 27 27 27 27 27 27 27 27 28 29 29 30 31 32 33 34 34 35
28 28 27 27 27 27 28 28 28 28 27 27 28 28 28 27 27 27 27 27 27 27 27 27 27 27 27 27 27 27 27 27 27 28 28 29 30 30 31 32 33 34 35 36
27 27 27 27 27 27 26 26 26 26 26 26 27 26 26 26 26 25 26 26 27 27 26 26 27 27 26 27 27 27 27 27 28 28 29 30 30 31 32 33 34 35 35 36
25 25 25 26 26 25 25 25 25 25 25 26 26 25 25 25 25 25 25 26 26 26 26 26 26 26 26 26 27 27 27 28 28 29 29 30 31 32 33 33 34 35 35 35
24 24 24 24 25 24 24 24 24 24 24 24 24 24 23 24 24 24 25 25 25 25 25 25 25 25 26 26 27 27 28 28 29 30 31 31 31 32 32 33 33 33 33 33
Wind_Direction
279 278 276 274 272 272 274 275 274 274 273 273 274 274 275 275 273 271 270 269 266 264 262 258 256 255 254 254 253 253 253 252 252 252 254 255 255 255 255 257 257 257 257 259
279 277 277 275 272 272 273 275 275 274 273 273 274 274 274 273 272 270 270 269 267 265 262 258 257 255 255 254 253 253 253 252 252 252 254 255 256 257 256 257 257 258 258 259
282 279 278 276 275 273 273 274 276 276 275 276 276 275 274 272 271 272 271 270 268 265 263 258 256 254 253 253 254 254 253 253 252 252 254 256 257 258 258 258 258 259 259 259
285 283 281 279 278 276 276 276 277 277 277 277 276 275 274 274 274 272 271 271 269 267 262 259 257 254 253 253 255 255 254 254 254 254 255 256 258 258 259 259 259 259 260 260
288 287 286 283 281 280 279 277 278 278 277 277 276 274 275 276 276 274 272 271 270 267 264 260 258 256 254 255 255 255 255 255 255 256 256 257 258 258 259 259 260 260 261 261
288 288 289 288 284 283 282 279 278 278 278 278 278 276 276 276 276 274 272 272 270 268 266 263 260 257 255 256 256 256 256 256 256 257 257 258 258 258 259 259 260 261 262 262
288 287 288 287 286 285 284 282 280 280 280 280 280 279 278 277 277 276 274 271 270 269 267 264 262 260 258 258 257 257 257 257 259 259 258 259 259 259 259 260 261 262 263 264
289 286 287 286 286 284 284 283 281 280 280 280 281 281 279 277 277 276 275 273 271 271 268 266 265 263 262 261 259 259 259 259 260 260 260 259 260 261 261 262 262 263 264 264
291 291 288 286 285 284 283 282 281 280 281 280 279 280 280 279 277 276 275 275 273 272 271 269 267 265 263 262 261 260 261 261 261 262 262 262 262 262 263 264 264 265 265 265
293 293 288 285 285 285 285 283 281 280 281 281 280 279 279 280 280 279 277 276 276 275 274 272 270 268 266 265 264 263 262 262 262 263 263 264 264 264 264 265 266 265 265 265
292 293 289 287 286 286 286 284 282 281 282 281 280 280 281 281 281 279 278 277 277 275 274 273 271 270 269 268 267 265 264 264 264 264 264 265 266 266 266 265 266 265 266 266
293 292 289 288 286 285 286 286 285 283 282 281 281 282 282 283 283 281 279 277 277 276 275 274 273 272 271 270 269 268 267 266 266 266 266 266 267 267 266 266 267 266 266 267
292 292 291 289 287 286 287 287 286 284 283 282 283 283 281 282 284 282 280 279 277 276 275 275 273 271 271 272 272 271 270 269 268 267 268 268 268 268 267 267 267 267 267 268
290 291 292 290 288 286 287 288 287 284 283 282 282 283 283 282 283 283 282 281 279 277 275 275 274 272 271 273 273 273 273 272 271 270 270 270 269 269 268 268 267 267 268 270
290 292 293 292 290 288 288 288 287 285 283 282 282 283 283 284 283 283 284 284 282 282 281 278 276 274 274 273 274 274 275 274 273 272 272 271 270 269 269 268 268 269 270 271
291 291 292 292 290 288 287 287 286 285 284 284 284 285 284 283 282 283 285 285 284 283 282 281 279 277 276 275 275 276 277 276 274 273 272 272 271 271 271 270 270 271 272 273
291 291 291 292 291 289 287 285 284 283 284 284 284 285 284 283 282 283 285 285 284 282 282 282 281 280 278 277 277 277 277 277 276 275 274 273 272 272 273 274 274 274 274 275
291 291 291 290 289 288 286 285 284 284 284 283 283 283 284 283 281 282 283 285 284 283 282 283 283 281 280 280 279 278 278 277 277 277 276 275 275 274 275 276 276 276 277 277
290 290 290 290 288 287 286 285 284 284 283 282 283 283 283 283 283 283 282 283 284 283 283 283 283 282 281 282 281 281 280 279 279 279 279 278 277 277 277 278 279 279 279 279
290 290 290 289 288 287 287 286 285 284 283 282 282 282 282 283 283 283 283 283 283 283 283 284 284 283 282 283 282 282 282 281 281 281 280 280 279 279 280 280 281 281 281 281
293 292 290 289 287 286 286 285 285 284 283 282 282 282 282 282 282 283 283 283 283 283 284 284 285 284 283 283 284 283 283 283 283 282 281 281 281 282 282 283 283 282 282 282
295 294 292 290 288 286 286 285 286 285 284 283 281 281 282 282 282 281 281 281 282 283 284 284 285 284 284 284 284 285 285 284 284 283 284 284 285 285 285 286 285 284 284 283
295 295 294 293 291 289 288 287 286 285 284 283 282 281 281 281 281 280 280 280 281 282 283 284 285 284 284 284 285 286 286 285 285 286 286 287 288 288 288 288 287 286 285 284
295 296 296 295 294 292 291 289 286 285 284 284 283 283 282 282 281 280 279 279 280 281 283 284 284 284 284 284 285 287 287 287 287 287 288 289 289 289 290 290 289 288 287 286
294 295 296 296 296 295 293 291 289 287 285 284 284 284 284 283 282 281 281 280 280 282 283 284 285 286 286 286 286 287 288 288 289 289 289 290 290 291 291 291 291 290 290 290
294 295 295 297 297 296 295 293 291 289 287 286 285 285 284 283 282 282 282 283 283 284 284 285 286 286 286 286 287 288 289 289 290 290 291 291 292 293 293 294 293 292 292 292
296 296 297 298 298 297 297 296 293 291 289 288 287 287 286 286 286 285 285 284 284 286 286 287 288 288 288 288 289 290 290 290 291 293 293 293 294 295 296 296 296 295 294 294
Height
5550 5549 5548 5547 5547 5547 5545 5545 5544 5545 5545 5545 5544 5544 5543 5543 5542 5542 5542 5542 5542 5543 5543 5545 5546 5548 5550 5552 5555 5557 5559 5562 5564 5567 5570 5572 5575 5578 5580 5583 5585 5587 5589 5591
5542 5541 5540 5539 5539 5538 5537 5536 5536 5535 5536 5536 5535 5534 5534 5533 5533 5533 5533 5532 5532 5532 5533 5534 5535 5537 5539 5542 5544 5546 5549 5551 5554 5556 5559 5561 5563 5565 5568 5570 5572 5574 5576 5578
5534 5533 5531 5531 5532 5531 5530 5529 5528 5527 5528 5526 5525 5525 5524 5524 5524 5523 5523 5522 5522 5522 5523 5523 5525 5526 5529 5531 5533 5535 5537 5540 5542 5545 5547 5549 5551 5553 5555 5557 5559 5561 5563 5565
5526 5525 5523 5527 5524 5523 5521 5521 5520 5519 5518 5517 5516 5516 5515 5514 5514 5514 5514 5513 5513 5513 5513 5514 5515 5516 5518 5521 5523 5525 5526 5528 5530 5533 5535 5537 5539 5541 5543 5544 5546 5548 5550 5551
5518 5516 5515 5518 5516 5514 5513 5513 5512 5510 5510 5509 5508 5507 5507 5506 5505 5505 5505 5504 5504 5504 5504 5504 5505 5506 5508 5510 5512 5514 5515 5517 5519 5521 5523 5525 5527 5529 5530 5532 5534 5535 5537 5538
5511 5508 5508 5511 5508 5505 5505 5504 5504 5502 5501 5500 5499 5499 5500 5498 5497 5496 5496 5495 5495 5495 5495 5495 5496 5497 5498 5500 5502 5503 5505 5507 5508 5510 5512 5514 5515 5517 5518 5520 5521 5522 5523 5524
5504 5501 5501 5502 5500 5498 5498 5498 5495 5494 5493 5492 5491 5491 5490 5489 5489 5488 5487 5487 5486 5486 5486 5487 5487 5488 5489 5490 5492 5493 5494 5495 5497 5498 5500 5502 5503 5505 5506 5508 5509 5510 5511 5511
5497 5495 5497 5494 5492 5491 5490 5488 5487 5486 5485 5484 5483 5482 5481 5481 5480 5480 5479 5478 5478 5478 5477 5478 5478 5478 5479 5480 5482 5483 5484 5485 5486 5487 5489 5490 5491 5493 5494 5495 5496 5496 5497 5497
5492 5492 5489 5486 5484 5483 5481 5481 5479 5478 5477 5477 5476 5475 5474 5473 5472 5472 5471 5470 5470 5469 5469 5468 5469 5469 5470 5470 5471 5472 5473 5474 5475 5476 5477 5478 5479 5480 5481 5482 5483 5483 5484 5484
5484 5484 5481 5479 5477 5476 5474 5473 5472 5471 5470 5469 5468 5467 5466 5465 5464 5464 5463 5462 5461 5460 5460 5459 5459 5459 5460 5460 5461 5462 5462 5463 5464 5465 5466 5467 5467 5468 5469 5469 5470 5470 5471 5471
5477 5477 5474 5473 5470 5468 5467 5465 5464 5463 5462 5461 5460 5459 5458 5457 5456 5455 5454 5453 5453 5452 5451 5451 5450 5450 5450 5451 5451 5451 5452 5452 5453 5454 5455 5455 5455 5456 5456 5457 5457 5458 5458 5458
5471 5470 5467 5466 5463 5461 5459 5458 5456 5455 5454 5453 5451 5451 5450 5448 5447 5446 5446 5445 5444 5443 5442 5442 5441 5441 5441 5441 5441 5441 5441 5441 5442 5443 5443 5443 5444 5444 5444 5444 5445 5445 5445 5445
5464 5462 5460 5458 5456 5454 5452 5450 5449 5448 5446 5445 5444 5443 5442 5441 5439 5438 5437 5436 5435 5434 5433 5432 5432 5431 5431 5431 5431 5431 5431 5431 5431 5431 5431 5432 5432 5432 5432 5432 5432 5432 5432 5432
5456 5454 5452 5451 5448 5446 5445 5443 5441 5440 5439 5437 5436 5435 5434 5433 5431 5430 5429 5428 5426 5425 5424 5423 5422 5422 5422 5421 5421 5421 5421 5420 5420 5420 5420 5420 5420 5420 5420 5420 5421 5420 5420 5420
5449 5447 5445 5443 5441 5439 5437 5435 5434 5433 5431 5430 5429 5427 5426 5425 5424 5422 5421 5419 5418 5417 5415 5414 5413 5413 5412 5412 5411 5411 5411 5410 5410 5409 5409 5409 5409 5409 5409 5409 5409 5409 5408 5407
5442 5440 5437 5435 5433 5431 5429 5428 5426 5425 5423 5422 5421 5419 5418 5417 5416 5414 5413 5411 5410 5408 5407 5405 5404 5404 5403 5403 5402 5401 5401 5400 5400 5399 5399 5399 5399 5399 5398 5398 5398 5397 5397 5396
5434 5432 5430 5428 5425 5423 5422 5420 5418 5417 5415 5414 5413 5412 5410 5409 5408 5407 5405 5403 5402 5400 5399 5398 5396 5395 5395 5394 5393 5392 5391 5390 5390 5389 5389 5389 5389 5388 5388 5387 5387 5386 5385 5384
5426 5424 5422 5419 5417 5415 5414 5412 5410 5409 5408 5406 5405 5404 5402 5401 5400 5399 5397 5396 5394 5393 5391 5390 5388 5387 5386 5385 5384 5383 5382 5381 5380 5380 5379 5379 5378 5378 5377 5377 5376 5375 5373 5372
5417 5415 5413 5411 5409 5407 5405 5404 5402 5401 5399 5398 5397 5396 5394 5393 5392 5390 5389 5388 5386 5384 5383 5381 5380 5379 5377 5376 5375 5374 5372 5371 5371 5370 5369 5368 5368 5367 5366 5365 5364 5363 5362 5360
5408 5406 5404 5402 5400 5399 5397 5395 5394 5392 5391 5390 5388 5387 5386 5385 5383 5382 5381 5379 5378 5376 5374 5373 5372 5370 5369 5367 5366 5365 5363 5362 5361 5360 5359 5358 5358 5357 5356 5354 5353 5352 5350 5349
5400 5397 5395 5393 5392 5390 5388 5386 5385 5384 5382 5381 5380 5379 5377 5376 5375 5373 5372 5371 5369 5368 5366 5364 5363 5361 5360 5359 5357 5356 5355 5353 5352 5351 5350 5349 5348 5346 5345 5344 5342 5340 5339 5337
5391 5389 5386 5384 5383 5381 5379 5378 5376 5374 5373 5372 5370 5369 5368 5367 5365 5364 5363 5362 5360 5359 5357 5356 5354 5353 5351 5350 5349 5347 5346 5345 5343 5342 5340 5339 5338 5336 5334 5333 5331 5329 5327 5325
5382 5380 5378 5376 5374 5372 5370 5368 5367 5365 5364 5362 5361 5360 5358 5357 5356 5355 5354 5353 5351 5350 5349 5347 5346 5344 5343 5341 5340 5338 5337 5335 5334 5332 5331 5329 5328 5326 5324 5322 5320 5318 5316 5314
5374 5372 5369 5367 5365 5363 5361 5359 5357 5356 5354 5353 5351 5350 5349 5348 5346 5345 5344 5343 5342 5341 5340 5338 5337 5335 5334 5332 5331 5330 5328 5326 5325 5323 5321 5320 5318 5316 5314 5311 5309 5307 5304 5302
5366 5363 5361 5359 5357 5355 5353 5351 5349 5347 5345 5344 5343 5341 5340 5338 5338 5336 5335 5334 5333 5332 5331 5329 5328 5326 5325 5323 5322 5321 5319 5317 5316 5314 5312 5310 5308 5305 5303 5301 5298 5295 5293 5290
5357 5355 5353 5351 5349 5347 5345 5343 5341 5339 5337 5336 5334 5333 5331 5330 5329 5328 5327 5325 5324 5323 5322 5321 5319 5318 5316 5315 5313 5312 5310 5308 5306 5304 5302 5300 5297 5295 5292 5290 5287 5284 5281 5278
5350 5348 5346 5344 5342 5340 5337 5335 5333 5331 5329 5328 5326 5325 5323 5322 5321 5320 5318 5317 5316 5315 5313 5312 5311 5309 5308 5306 5305 5303 5301 5299 5297 5295 5292 5290 5287 5284 5282 5279 5276 5273 5270 5267